TV
NORAD ID: 23331
Int'l Code: 1994-070A
Perigee: 35,783.5 km
Apogee: 35,803.3 km
Inclination: 5.0 °
Period: 1,436.1 minutes
Semi major axis: 42164 km
Launch date: November 1, 1994
Source: Luxembourg (LUXE)
Comments: Primarily backup for Astra 1B and 1C; 18 Ku-band transponders; continental Europe.
Two Line Element Set (TLE):
1 23331U 94070A 13170.28303756 .00000000 00000-0 10000-3 0 6337
2 23331 005.0086 061.9446 0002346 047.5606 312.2447 01.00272949 68704
Source: AFSPC
NASA's NSSDC Master Catalog entry for ASTRA 1D